DW7857 Weather Reports


Display with metric or nautical units.
time (UTC)temp
F
wind
direction
speed
MPH
gust
MPH
rain 1hr
in
rain 24hr
in
rain mn
in
humidity
%
barometer
mb
20210512140004 55 198 5.0 11.0 0.00 0.22 0.00 62 999.1
20210512135505 55 196 5.0 11.0 0.00 0.22 0.00 61 999.1
20210512135005 55 217 5.0 8.0 0.00 0.22 0.00 61 999.1
20210512134504 55 199 6.0 11.0 0.00 0.22 0.00 60 999.1
20210512134005 56 201 6.0 11.0 0.00 0.22 0.00 58 999.2
20210512133505 56 215 5.0 11.0 0.00 0.22 0.00 57 999.0
20210512133004 57 199 3.0 8.0 0.00 0.22 0.00 58 999.2
20210512132505 57 175 4.0 10.0 0.00 0.22 0.00 58 999.1
20210512132004 57 163 4.0 10.0 0.00 0.22 0.00 55 999.0
20210512131505 57 188 4.0 9.0 0.00 0.22 0.00 56 999.1
20210512131005 57 204 5.0 9.0 0.00 0.22 0.00 55 999.2
20210512130505 57 197 5.0 9.0 0.00 0.22 0.00 54 999.3
20210512130004 57 179 5.0 8.0 0.00 0.22 0.00 53 999.3
20210512125505 57 182 5.0 11.0 0.00 0.22 0.00 52 998.9
20210512125005 57 200 5.0 11.0 0.00 0.22 0.00 52 999.0
20210512124505 58 211 5.0 11.0 0.00 0.22 0.00 51 999.0
20210512124005 58 203 4.0 11.0 0.00 0.22 0.00 51 999.2
20210512123504 59 170 3.0 13.0 0.00 0.22 0.00 51 998.9
20210512123004 59 136 5.0 13.0 0.00 0.22 0.00 50 999.1
20210512122505 59 142 5.0 13.0 0.00 0.22 0.00 52 999.2
20210512122004 58 188 5.0 13.0 0.00 0.22 0.00 52 999.1
20210512121504 58 193 6.0 11.0 0.00 0.22 0.00 52 999.1
20210512121005 58 196 5.0 11.0 0.00 0.22 0.00 49 999.4
20210512120504 59 195 4.0 12.0 0.00 0.22 0.00 51 999.4
20210512120004 58 206 5.0 12.0 0.00 0.22 0.00 51 999.5
20210512115505 58 187 5.0 12.0 0.00 0.22 0.00 50 999.2
20210512115004 59 174 5.0 11.0 0.00 0.22 0.00 50 999.4
20210512114504 59 211 4.0 11.0 0.00 0.22 0.00 47 999.3
20210512114005 59 203 4.0 10.0 0.00 0.22 0.00 48 999.4
20210512113505 59 158 5.0 10.0 0.00 0.22 0.00 51 999.5
20210512113004 58 175 5.0 11.0 0.00 0.22 0.00 50 999.7
20210512112505 58 188 6.0 11.0 0.00 0.22 0.00 50 999.1
20210512112005 59 167 5.0 11.0 0.00 0.22 0.00 48 999.3
20210512111505 59 185 5.0 11.0 0.00 0.22 0.00 50 999.4
20210512111005 59 171 5.0 13.0 0.00 0.22 0.00 48 999.4
20210512110505 59 140 4.0 13.0 0.00 0.22 0.00 48 999.2
20210512110004 60 149 3.0 6.0 0.00 0.22 0.00 49 999.3
20210512105504 59 165 3.0 9.0 0.00 0.22 0.00 52 999.2
20210512105005 58 196 6.0 13.0 0.00 0.22 0.00 52 999.3
20210512104504 57 184 5.0 13.0 0.00 0.22 0.00 51 999.4
20210512104005 58 153 4.0 8.0 0.00 0.22 0.00 55 999.4
20210512103505 57 195 5.0 9.0 0.00 0.22 0.00 55 999.4
20210512103004 57 186 5.0 10.0 0.00 0.22 0.00 53 999.3
20210512102505 58 176 5.0 10.0 0.00 0.22 0.00 54 999.5
20210512102004 57 178 6.0 10.0 0.00 0.22 0.00 52 999.7
20210512101504 57 167 5.0 9.0 0.00 0.22 0.00 52 999.4
20210512101005 57 199 4.0 8.0 0.00 0.22 0.00 52 999.6
20210512100504 57 230 3.0 8.0 0.00 0.22 0.00 50 999.3
20210512100005 57 188 5.0 12.0 0.00 0.22 0.00 51 999.7
20210512095505 57 185 5.0 12.0 0.00 0.22 0.00 50 999.5
20210512095005 58 179 4.0 10.0 0.00 0.22 0.00 51 999.4
20210512094504 58 200 6.0 11.0 0.00 0.22 0.00 50 999.5
20210512094005 58 226 6.0 11.0 0.00 0.22 0.00 50 999.7
20210512093504 58 220 5.0 11.0 0.00 0.22 0.00 50 999.6
20210512093005 58 234 5.0 11.0 0.00 0.22 0.00 52 999.5
20210512092505 58 215 5.0 11.0 0.00 0.22 0.00 51 999.7
20210512092004 58 196 4.0 8.0 0.00 0.22 0.00 51 999.6
20210512091505 58 208 5.0 9.0 0.00 0.22 0.00 52 999.7
20210512091005 58 121 5.0 9.0 0.00 0.22 0.00 53 999.7
20210512090505 58 153 5.0 11.0 0.00 0.22 0.00 53 999.8
20210512090005 57 173 5.0 11.0 0.00 0.22 0.00 55 999.7
20210512085505 57 186 4.0 9.0 0.00 0.22 0.00 60 999.6
20210512085004 55 201 6.0 12.0 0.00 0.22 0.00 61 999.7
20210512084505 54 211 7.0 12.0 0.00 0.22 0.00 64 999.8
20210512084005 54 189 6.0 12.0 0.00 0.22 0.00 62 999.8
20210512083504 56 117 4.0 9.0 0.00 0.22 0.00 60 999.6
20210512083004 55 168 4.0 12.0 0.00 0.22 0.00 63 999.6
20210512082505 54 185 6.0 12.0 0.00 0.22 0.00 67 999.5
20210512082004 53 198 5.0 11.0 0.00 0.22 0.00 69 999.5
20210512081505 54 198 6.0 11.0 0.00 0.22 0.00 70 999.5
20210512081005 53 204 6.0 11.0 0.00 0.22 0.00 71 999.5
20210512080504 53 207 7.0 11.0 0.00 0.22 0.00 70 999.5
20210512080005 54 200 5.0 11.0 0.00 0.22 0.00 67 999.5
20210512075504 55 193 4.0 9.0 0.00 0.22 0.00 63 999.6
20210512075005 55 193 4.0 9.0 0.00 0.22 0.00 65 999.7
20210512074504 55 209 5.0 11.0 0.00 0.22 0.00 65 999.4
20210512074004 55 217 4.0 11.0 0.00 0.22 0.00 67 999.7
20210512073505 54 192 4.0 11.0 0.00 0.22 0.00 69 999.7
20210512073004 54 191 5.0 11.0 0.00 0.22 0.00 71 999.7
20210512072505 53 202 4.0 11.0 0.00 0.22 0.00 71 999.8
20210512072005 53 206 5.0 11.0 0.00 0.22 0.00 72 999.4
20210512071504 52 189 6.0 11.0 0.00 0.22 0.00 72 999.4
20210512071005 53 179 5.0 11.0 0.00 0.22 0.00 72 999.5
20210512070505 53 193 6.0 10.0 0.00 0.22 0.00 74 999.5
20210512070004 52 183 6.0 10.0 0.00 0.22 0.00 74 999.6
20210512065505 52 174 5.0 8.0 0.00 0.22 0.00 74 999.5
20210512065005 52 201 4.0 8.0 0.00 0.22 0.00 76 999.5
20210512064504 52 199 5.0 8.0 0.00 0.22 0.00 76 999.6
20210512064005 51 188 5.0 8.0 0.00 0.22 0.00 76 999.5
20210512063505 51 188 5.0 8.0 0.00 0.22 0.00 78 999.6
20210512063005 51 204 4.0 8.0 0.00 0.22 0.00 80 999.6
20210512062505 51 211 4.0 8.0 0.00 0.22 0.00 82 999.6
20210512062004 50 198 4.0 8.0 0.00 0.22 0.00 83 999.4
20210512061504 50 176 3.0 6.0 0.00 0.22 0.00 85 999.3
20210512061005 50 179 2.0 4.0 0.00 0.22 0.00 86 999.3
20210512060504 49 181 2.0 4.0 0.00 0.22 0.00 86 999.6
20210512060005 47 183 2.0 4.0 0.00 0.22 0.00 86 999.4
20210512055506 47 208 2.0 4.0 0.00 0.22 0.00 85 999.3
20210512055004 47 203 2.0 4.0 0.00 0.22 0.00 86 999.5
20210512054504 47 203 2.0 5.0 0.00 0.22 0.00 86 999.5
20210512054005 47 213 2.0 5.0 0.00 0.22 0.00 86 999.3
20210512053504 47 205 2.0 4.0 0.00 0.22 0.00 86 999.2
20210512053005 46 205 1.0 3.0 0.00 0.22 0.00 86 999.2
20210512052505 45 200 2.0 4.0 0.00 0.22 0.00 90 999.2
20210512052005 45 203 2.0 4.0 0.00 0.22 0.00 90 999.3
20210512051504 45 209 2.0 5.0 0.00 0.22 0.00 90 999.3
20210512051004 45 207 2.0 5.0 0.00 0.22 0.00 90 999.3
20210512050504 45 212 2.0 5.0 0.00 0.22 0.00 90 999.2
20210512050005 45 201 1.0 2.0 0.00 0.22 0.00 90 999.2
20210512045505 45 189 0.0 2.0 0.00 0.22 0.00 89 999.2
20210512045004 45 0 0.0 1.0 0.00 0.22 0.00 89 999.1
20210512044505 45 172 0.0 2.0 0.00 0.22 0.00 89 999.2
20210512044005 45 183 1.0 4.0 0.00 0.22 0.00 89 999.4
20210512043504 46 179 2.0 4.0 0.00 0.22 0.00 83 999.2
20210512043005 46 173 2.0 4.0 0.00 0.22 0.00 83 999.3
20210512042504 46 161 1.0 2.0 0.00 0.22 0.00 83 999.1
20210512042004 46 143 1.0 3.0 0.00 0.22 0.00 83 999.2
20210512041505 46 189 2.0 4.0 0.00 0.22 0.00 83 999.0
20210512041005 47 198 2.0 4.0 0.00 0.22 0.00 84 999.3
20210512040504 47 190 2.0 4.0 0.00 0.22 0.00 84 999.1
20210512040005 47 197 3.0 4.0 0.00 0.22 0.00 85 999.0
20210512035505 47 194 3.0 8.0 0.00 0.22 0.00 85 999.3
20210512035005 47 188 3.0 8.0 0.00 0.22 0.00 86 999.0
20210512034504 47 194 2.0 4.0 0.00 0.22 0.00 86 998.9
20210512034005 47 193 2.0 4.0 0.00 0.22 0.00 86 998.9
20210512033504 47 207 2.0 4.0 0.00 0.22 0.00 86 999.1
20210512033005 47 211 2.0 4.0 0.00 0.22 0.00 86 998.9
20210512032505 47 187 2.0 4.0 0.00 0.22 0.00 86 999.1
20210512032004 47 174 2.0 5.0 0.00 0.22 0.00 87 999.1
20210512031505 47 179 3.0 5.0 0.00 0.22 0.00 87 999.0
20210512031005 47 191 2.0 4.0 0.00 0.22 0.00 87 999.2
20210512030504 47 198 2.0 6.0 0.00 0.22 0.00 87 999.2
20210512030004 47 193 3.0 7.0 0.00 0.22 0.00 87 999.2
20210512025505 47 190 4.0 7.0 0.00 0.22 0.00 87 999.0
20210512025005 47 186 4.0 8.0 0.00 0.22 0.00 87 999.1
20210512024504 47 181 4.0 8.0 0.00 0.22 0.00 87 999.1
20210512024004 47 173 4.0 6.0 0.00 0.22 0.00 87 999.0
20210512023505 47 187 4.0 7.0 0.00 0.22 0.00 87 998.9
20210512023005 47 202 3.0 7.0 0.00 0.22 0.00 87 999.1
20210512022504 47 203 3.0 6.0 0.00 0.22 0.00 87 999.1
20210512022005 47 193 4.0 6.0 0.00 0.22 0.00 87 999.1
20210512021504 47 182 4.0 7.0 0.00 0.22 0.00 87 999.1
20210512021004 47 200 4.0 7.0 0.00 0.22 0.00 87 999.2
20210512020505 47 213 3.0 7.0 0.00 0.22 0.00 87 999.1
20210512020005 46 198 3.0 6.0 0.00 0.22 0.00 87 999.2
20210512015504 46 198 4.0 7.0 0.00 0.22 0.00 87 999.0
20210512015005 46 195 3.0 7.0 0.00 0.22 0.00 87 999.0
20210512014504 46 184 3.0 7.0 0.00 0.22 0.00 87 999.2
20210512014005 46 179 3.0 7.0 0.00 0.22 0.00 87 999.3
20210512013505 46 190 4.0 8.0 0.00 0.22 0.00 87 999.1
20210512013004 46 190 4.0 8.0 0.00 0.22 0.00 87 999.0
20210512012504 46 178 3.0 7.0 0.00 0.22 0.00 86 998.9
20210512012005 46 188 2.0 4.0 0.00 0.22 0.00 86 998.8
20210512011504 45 210 2.0 4.0 0.00 0.22 0.00 90 999.1
20210512011005 45 218 2.0 4.0 0.00 0.22 0.00 90 999.0
20210512010504 44 181 2.0 4.0 0.00 0.22 0.00 89 999.2
20210512010005 44 146 2.0 4.0 0.00 0.22 0.00 88 999.0
20210512005505 44 146 1.0 4.0 0.00 0.22 0.00 88 998.9
20210512005004 44 151 0.0 2.0 0.00 0.22 0.00 87 999.2
20210512004505 44 154 0.0 2.0 0.00 0.22 0.00 87 999.2
20210512004005 44 171 0.0 2.0 0.00 0.22 0.00 87 999.1
20210512003505 44 173 0.0 2.0 0.00 0.22 0.00 87 999.0
20210512003004 44 90 0.0 2.0 0.00 0.22 0.00 87 999.1
20210512002505 44 138 0.0 2.0 0.00 0.22 0.00 87 999.3
20210512002005 44 170 0.0 2.0 0.00 0.22 0.00 86 999.1
20210512001504 44 165 0.0 2.0 0.00 0.22 0.00 86 999.2
20210512001005 44 117 0.0 2.0 0.00 0.22 0.00 86 999.3
20210512000504 44 110 0.0 2.0 0.00 0.22 0.00 86 999.3
20210512000006 44 103 0.0 2.0 0.00 0.22 0.00 85 999.4
20210511235505 44 135 0.0 2.0 0.00 0.22 0.22 85 999.2
20210511235004 45 150 0.0 2.0 0.00 0.22 0.22 85 999.3
20210511234505 45 164 0.0 2.0 0.00 0.22 0.22 85 999.3
20210511234005 45 130 0.0 2.0 0.00 0.22 0.22 85 999.2
20210511233504 45 143 0.0 2.0 0.00 0.22 0.22 85 999.2
20210511233005 46 212 0.0 2.0 0.00 0.22 0.22 80 999.2
20210511232504 46 225 0.0 2.0 0.00 0.22 0.22 80 999.1
20210511232004 46 188 0.0 2.0 0.00 0.22 0.22 80 999.2
20210511231505 46 195 1.0 4.0 0.00 0.22 0.22 80 999.0
20210511231005 46 186 1.0 4.0 0.00 0.22 0.22 80 999.0
20210511230504 46 169 1.0 4.0 0.00 0.22 0.22 80 999.0
20210511230005 46 193 1.0 4.0 0.00 0.22 0.22 80 999.2
20210511225505 46 207 2.0 4.0 0.00 0.22 0.22 80 999.1
20210511225005 46 196 2.0 3.0 0.00 0.22 0.22 80 998.8
20210511224504 46 189 2.0 4.0 0.00 0.22 0.22 80 999.1
20210511224005 46 202 1.0 4.0 0.00 0.22 0.22 80 998.9
20210511223505 46 217 1.0 4.0 0.00 0.22 0.22 80 998.9
20210511223004 46 211 1.0 4.0 0.00 0.22 0.22 80 999.1
20210511222505 47 207 1.0 4.0 0.00 0.22 0.22 80 998.9
20210511222005 47 214 2.0 4.0 0.00 0.22 0.22 80 999.0
20210511221504 47 206 2.0 4.0 0.00 0.22 0.22 80 999.1
20210511221005 47 206 2.0 4.0 0.00 0.22 0.22 80 999.0
20210511220504 47 198 2.0 6.0 0.00 0.22 0.22 80 998.9
20210511220005 47 187 2.0 6.0 0.00 0.22 0.22 80 999.1
20210511215504 47 191 2.0 4.0 0.00 0.22 0.22 80 999.1
20210511215005 47 191 2.0 6.0 0.00 0.22 0.22 80 998.9
20210511214505 48 194 2.0 6.0 0.00 0.22 0.22 80 998.9
20210511214004 48 207 2.0 4.0 0.00 0.22 0.22 80 999.0
20210511213504 48 218 3.0 7.0 0.00 0.22 0.22 79 998.8
20210511213005 48 200 3.0 7.0 0.00 0.22 0.22 79 998.7
20210511212505 48 181 2.0 5.0 0.00 0.22 0.22 79 998.9
20210511212005 48 190 2.0 6.0 0.00 0.22 0.22 78 998.7
20210511211504 49 191 3.0 6.0 0.00 0.22 0.22 78 998.6
20210511211005 48 193 2.0 6.0 0.00 0.22 0.22 77 998.6
20210511210504 49 205 3.0 5.0 0.00 0.22 0.22 77 998.6
20210511210005 49 210 2.0 5.0 0.00 0.22 0.22 76 998.4
20210511205505 49 202 2.0 4.0 0.00 0.22 0.22 75 998.4
20210511205004 49 183 2.0 4.0 0.00 0.22 0.22 75 998.4
20210511204505 49 185 2.0 4.0 0.00 0.22 0.22 74 998.8
20210511204005 49 200 2.0 5.0 0.00 0.22 0.22 74 998.5
20210511203504 49 202 3.0 5.0 0.00 0.22 0.22 74 998.5
20210511203005 49 196 3.0 5.0 0.00 0.22 0.22 74 998.1
20210511202505 49 179 2.0 5.0 0.00 0.22 0.22 74 998.3
20210511202005 50 193 2.0 4.0 0.00 0.22 0.22 74 998.2
20210511201504 50 205 2.0 4.0 0.00 0.22 0.22 73 998.1
20210511201004 50 175 2.0 4.0 0.00 0.22 0.22 73 998.1
20210511200505 50 169 2.0 4.0 0.00 0.22 0.22 73 998.1
20210511200005 50 191 2.0 4.0 0.00 0.22 0.22 73 997.8
20210511195505 50 213 2.0 4.0 0.00 0.22 0.22 73 997.8
20210511195004 50 203 2.0 4.0 0.00 0.22 0.22 72 997.8
20210511194505 50 201 2.0 4.0 0.00 0.22 0.22 72 997.7
20210511194005 50 201 3.0 4.0 0.00 0.22 0.22 72 997.6
20210511193504 50 201 2.0 4.0 0.00 0.22 0.22 71 997.6
20210511193004 50 201 2.0 4.0 0.00 0.22 0.22 71 997.5
20210511192505 51 194 2.0 4.0 0.00 0.22 0.22 71 997.5
20210511192005 51 200 2.0 4.0 0.00 0.22 0.22 71 997.3
20210511191504 51 212 2.0 6.0 0.00 0.22 0.22 71 997.3
20210511191005 51 212 3.0 6.0 0.00 0.22 0.22 71 997.3
20210511190505 51 227 3.0 7.0 0.00 0.22 0.22 71 997.1
20210511190004 51 269 4.0 7.0 0.00 0.22 0.22 71 997.3
20210511185505 51 247 4.0 8.0 0.00 0.22 0.22 71 996.9
20210511185005 51 207 4.0 10.0 0.00 0.22 0.22 70 996.8
20210511184504 51 197 4.0 10.0 0.00 0.22 0.22 70 996.9
20210511184005 51 217 5.0 10.0 0.00 0.22 0.22 70 997.0
20210511183505 52 201 5.0 10.0 0.00 0.22 0.22 70 996.7
20210511183004 52 176 5.0 9.0 0.00 0.22 0.22 70 996.7
20210511182505 52 208 5.0 9.0 0.00 0.22 0.22 70 996.6
20210511182005 52 215 5.0 10.0 0.00 0.22 0.22 70 996.3
20210511181504 53 219 5.0 10.0 0.00 0.22 0.22 70 996.4
20210511181005 53 221 5.0 12.0 0.00 0.22 0.22 70 996.2
20210511180505 53 217 6.0 12.0 0.00 0.22 0.22 69 996.1
20210511180005 53 195 6.0 10.0 0.00 0.22 0.22 70 995.8
20210511175505 53 204 6.0 13.0 0.00 0.22 0.22 70 995.8
20210511175005 53 244 6.0 13.0 0.01 0.22 0.22 71 995.6
20210511174504 53 253 7.0 13.0 0.01 0.22 0.22 71 995.6
20210511174005 53 202 7.0 11.0 0.01 0.22 0.22 73 995.5
20210511173505 53 196 7.0 11.0 0.01 0.22 0.22 75 995.1
20210511173004 53 204 8.0 13.0 0.01 0.22 0.22 76 995.0
20210511172505 52 193 8.0 14.0 0.01 0.22 0.22 78 994.9
20210511172005 52 178 8.0 14.0 0.01 0.22 0.22 77 994.8
20210511171505 51 185 9.0 16.0 0.01 0.22 0.22 77 994.7
20210511171005 51 186 11.0 24.0 0.01 0.22 0.22 77 994.6
20210511170504 51 186 12.0 24.0 0.01 0.22 0.22 77 994.6
20210511170005 52 195 10.0 19.0 0.01 0.22 0.22 79 994.4
20210511165505 52 200 11.0 19.0 0.01 0.22 0.22 80 994.7
20210511165004 52 199 11.0 21.0 0.00 0.21 0.21 79 994.5
20210511164505 52 186 9.0 21.0 0.00 0.21 0.21 80 994.2
20210511164005 52 194 10.0 23.0 0.00 0.21 0.21 80 994.3
20210511163504 52 200 12.0 23.0 0.00 0.21 0.21 80 994.6
20210511163005 52 192 11.0 23.0 0.00 0.21 0.21 80 994.4
20210511162504 52 189 8.0 20.0 0.00 0.21 0.21 81 994.4
20210511162004 52 183 9.0 17.0 0.00 0.21 0.21 82 994.0
20210511161505 52 173 9.0 17.0 0.00 0.21 0.21 83 994.5
20210511161005 52 168 7.0 14.0 0.00 0.21 0.21 85 994.4
20210511160504 51 184 7.0 18.0 0.00 0.21 0.21 85 994.1
20210511160005 51 182 8.0 18.0 0.00 0.21 0.21 85 994.5
20210511155505 51 173 8.0 17.0 0.08 0.21 0.21 85 994.4
20210511155004 51 151 7.0 17.0 0.12 0.21 0.21 86 994.5
20210511154505 50 148 6.0 15.0 0.13 0.21 0.21 86 994.5
20210511154005 50 214 5.0 12.0 0.14 0.21 0.21 86 994.6
20210511153505 50 243 5.0 12.0 0.18 0.21 0.21 86 994.7
20210511153004 49 153 5.0 12.0 0.19 0.21 0.21 85 994.7
20210511152505 49 92 5.0 12.0 0.20 0.21 0.21 83 994.9
20210511152005 47 92 4.0 10.0 0.20 0.21 0.21 81 994.6
20210511151504 47 77 3.0 8.0 0.21 0.22 0.21 80 995.4
20210511151005 47 43 2.0 8.0 0.21 0.22 0.21 80 995.4
20210511150505 47 75 2.0 7.0 0.21 0.22 0.21 80 995.2
20210511150005 49 59 3.0 7.0 0.20 0.21 0.20 80 995.6
20210511145504 49 69 3.0 7.0 0.11 0.12 0.11 80 995.7
20210511145005 49 96 2.0 6.0 0.09 0.11 0.09 78 996.0
20210511144505 50 143 4.0 8.0 0.08 0.11 0.08 77 995.8
20210511144005 50 159 4.0 8.0 0.06 0.08 0.06 75 996.2
20210511143505 51 130 4.0 13.0 0.04 0.06 0.04 72 996.2
20210511143005 51 145 4.0 13.0 0.02 0.05 0.02 71 996.2
20210511142504 52 193 4.0 11.0 0.01 0.04 0.01 70 996.2
20210511142005 53 103 5.0 11.0 0.01 0.05 0.01 66 996.3
20210511141504 54 97 5.0 11.0 0.00 0.04 0.00 63 996.3
20210511141005 55 114 5.0 11.0 0.00 0.04 0.00 57 996.3
20210511140505 55 166 5.0 11.0 0.00 0.04 0.00 55 996.4